User: anonymous   Login
Location: Arrodets-la-Barthe
(43.0306°N, 0.2829°E)
Time: 19:14:41
(UTC+00:00)
Language:

IRS-P2 Rocket - Orbit

View from above orbital plane
View from above orbital plane
View from above satellite
View from above satellite

Ground track
Ground track

The orbit data is extracted from the following two-line orbital elements,

1 23324U 94068B   22022.53887151 -.00000038  00000-0  39890-5 0  9993
2 23324  99.0608  65.3193 0057679 167.2117 193.0535 14.17104935409974
Epoch (UTC): 22 January 2022 12:55:58
Eccentricity: 0.0057679
inclination: 99.0608°
perigee height: 793 km
apogee height: 877 km
right ascension of ascending node: 65.3193°
argument of perigee: 167.2117°
revolutions per day: 14.17104935
mean anomaly at epoch: 193.0535°
orbit number at epoch: 40997

The dashed part of the orbit path shows where the satellite is in the earth's shadow,  

DLR